Location: Bittelbronn
(48.4454°N, 8.5870°E)
Time: 18:50:25
(UTC+00:00)

Cosmos 2219 Rocket - Pass Details

Date: 23 May 2024
Orbit: 826 x 847 km, 71.0° (Epoch: 23 June)

Event Time Altitude Azimuth Distance (km) Brightness Sun altitude
Rises 01:48:57 0° 333° (NNW) 3,398 5.8 -13.5°
Reaches altitude 10° 01:51:27 10° 338° (NNW) 2,463 5.1 -13.3°
Maximum altitude 01:57:02 58° 57° (ENE) 983 2.9 -12.8°
Drops below altitude 10° 02:02:35 10° 136° (SE) 2,461 4.5 -12.2°
Sets 02:05:05 0° 141° (SE) 3,394 5.2 -11.9°
